Home   Weather   Keren   Past weeks

Flag for Eritrea Past Weather in Keren, Eritrea — Yesterday and Last 2 Weeks

Now
79 °F

Passing clouds.


Feels Like: 82 °F
Forecast: 61 / 82 °F
Wind: 3 mph from Southeast

Location: Gizan

Current Time: Dec 11, 2016 at 7:18:52 am

Latest Report: Dec 11, 2016 at 7:00 am


Visibility: 4 mi

Pressure: 29.98 "Hg (25.57 "Hg at 1393m altitude)

Humidity: 79%

Dew Point: 72 °F

Location of KerenLocation

Past Weather in Keren — Graph

°F

Keren Temperature Yesterday

Maximum temperature yesterday: 90 °F (at 10:00 am)
Minimum temperature yesterday: 77 °F (at 5:00 am)
Average temperature yesterday: 84 °F

High & Low Weather Summary for the Past Weeks

 TemperatureHumidityPressure
High93 °F (Nov 27, 12:00 pm)89% (Dec 3, 6:00 am)30.07 "Hg (Dec 3, 6:00 am)
Low75 °F (Dec 3, 5:00 am)44% (Nov 27, 12:00 pm)29.83 "Hg (Nov 26, 3:00 pm)
Average84 °F69%29.96 "Hg
* Reported Nov 26 6:00 am — Dec 11 6:00 am, Keren, Weather by CustomWeather, © 2016

Note: Actual official high and low records may vary slightly from our data, if they occured in-between our weather recording intervals... More about our weather records

Advertising

Keren Weather History for the Previous 24 Hours

Scroll right to see more
 ConditionsComfort  
Time TempWeatherWind HumidityBarometerVisibility
6:00 am
Sun, Dec 11
79 °FPassing clouds.3 mph79%29.98 "Hg6 mi
5:00 am79 °FClear.3 mph74%29.95 "Hg10 mi
4:00 am79 °FClear.3 mph74%29.95 "Hg10 mi
3:00 am79 °FClear.3 mph79%29.95 "Hg10 mi
2:00 am81 °FClear.No wind74%29.95 "Hg10 mi
1:00 am81 °FClear.No wind74%29.95 "Hg10 mi
12:00 am82 °FClear.No wind74%29.95 "Hg10 mi
11:00 pm
Sat, Dec 10
82 °FPassing clouds.5 mph74%29.95 "HgN/A
10:00 pm82 °FPassing clouds.5 mph74%29.98 "HgN/A
9:00 pm84 °FPassing clouds.7 mph70%29.95 "HgN/A
8:00 pm84 °FPassing clouds.12 mph70%29.95 "HgN/A
7:00 pm84 °FPassing clouds.12 mph74%29.92 "HgN/A
6:00 pm86 °FPassing clouds.7 mph75%29.92 "HgN/A
5:00 pm88 °FPassing clouds.14 mph66%29.92 "HgN/A
4:00 pm88 °FPassing clouds.12 mph66%29.89 "HgN/A
3:00 pm90 °FPassing clouds.14 mph63%29.89 "HgN/A
2:00 pm90 °FScattered clouds.14 mph59%29.92 "HgN/A
1:00 pm90 °FScattered clouds.10 mph59%29.95 "Hg6 mi
12:00 pm90 °FScattered clouds.9 mph63%29.95 "Hg6 mi
11:00 am90 °FScattered clouds.No wind59%30.01 "Hg6 mi
10:00 am90 °FScattered clouds.7 mph55%30.01 "Hg6 mi
9:00 am86 °FPassing clouds.3 mph59%30.01 "Hg5 mi
8:00 am81 °FSunny.No wind70%29.98 "Hg5 mi
7:00 am79 °FPassing clouds.3 mph74%29.98 "Hg6 mi
Weather by CustomWeather, © 2016

See weather overviewHow to use our weather pages